�������l�o���
Date,Time,MP-1(��Sv/h),MP-2(��Sv/h),MP-3(��Sv/h),MP-4(��Sv/h),MP-5(��Sv/h),MP-6(��Sv/h),MP-7(��Sv/h),MP-8(��Sv/h),����,����(m/s),���J
2020/03/30,00:00,0.578,0.794,0.558,1.100,0.718,0.363,0.659,0.636,�k��,6.0,��
2020/03/30,00:10,0.577,0.792,0.557,1.100,0.719,0.364,0.658,0.635,�k��,5.7,��
2020/03/30,00:20,0.577,0.793,0.559,1.098,0.719,0.364,0.658,0.639,�k��,6.4,��
2020/03/30,00:30,0.579,0.795,0.557,1.102,0.719,0.364,0.660,0.637,�k��,5.7,��
2020/03/30,00:40,0.577,0.793,0.558,1.102,0.720,0.364,0.660,0.638,�k��,5.6,��
2020/03/30,00:50,0.577,0.793,0.559,1.103,0.720,0.364,0.660,0.637,�k��,5.6,��
2020/03/30,01:00,0.579,0.794,0.559,1.103,0.721,0.363,0.659,0.637,�k��,5.9,��
2020/03/30,01:10,0.578,0.795,0.557,1.105,0.721,0.363,0.659,0.638,�k��,5.5,��
2020/03/30,01:20,0.578,0.794,0.557,1.104,0.720,0.365,0.659,0.637,�k��,5.5,��
2020/03/30,01:30,0.578,0.795,0.559,1.103,0.722,0.366,0.661,0.637,�k�k��,5.9,��
2020/03/30,01:40,0.578,0.794,0.559,1.105,0.723,0.365,0.662,0.638,�k�k��,5.5,��
2020/03/30,01:50,0.578,0.796,0.559,1.103,0.720,0.365,0.659,0.637,�k��,5.8,��
2020/03/30,02:00,0.580,0.795,0.559,1.106,0.721,0.365,0.660,0.637,�k��,5.7,��
2020/03/30,02:10,0.579,0.796,0.559,1.104,0.723,0.366,0.661,0.636,�k��,5.9,��
2020/03/30,02:20,0.578,0.794,0.559,1.106,0.722,0.364,0.661,0.638,�k��,5.5,��
2020/03/30,02:30,0.580,0.796,0.559,1.106,0.723,0.364,0.662,0.639,�k��,5.7,��
2020/03/30,02:40,0.579,0.797,0.559,1.107,0.723,0.365,0.661,0.638,�k��,5.9,��
2020/03/30,02:50,0.578,0.796,0.559,1.106,0.722,0.365,0.660,0.639,�k��,6.1,��
2020/03/30,03:00,0.580,0.797,0.559,1.107,0.722,0.364,0.661,0.640,�k��,5.5,��
2020/03/30,03:10,0.579,0.796,0.560,1.107,0.723,0.366,0.662,0.638,�k��,5.3,��
2020/03/30,03:20,0.580,0.796,0.559,1.107,0.726,0.365,0.664,0.639,�k��,5.6,��
2020/03/30,03:30,0.581,0.797,0.562,1.108,0.723,0.366,0.661,0.639,�k��,5.5,��
2020/03/30,03:40,0.580,0.798,0.561,1.108,0.723,0.365,0.661,0.639,�k��,6.1,��
2020/03/30,03:50,0.580,0.796,0.561,1.110,0.725,0.366,0.662,0.638,�k�k��,6.1,��
2020/03/30,04:00,0.582,0.798,0.562,1.108,0.725,0.365,0.660,0.638,�k��,5.9,��
2020/03/30,04:10,0.580,0.798,0.560,1.111,0.724,0.365,0.662,0.638,�k��,6.9,��
2020/03/30,04:20,0.581,0.799,0.561,1.111,0.725,0.366,0.661,0.639,�k�k��,6.9,��
2020/03/30,04:30,0.581,0.798,0.560,1.112,0.725,0.365,0.663,0.641,�k�k��,6.1,��
2020/03/30,04:40,0.580,0.797,0.561,1.112,0.724,0.365,0.663,0.641,�k�k��,5.9,��
2020/03/30,04:50,0.581,0.797,0.562,1.111,0.724,0.366,0.663,0.639,�k�k��,6.2,��
2020/03/30,05:00,0.580,0.799,0.563,1.113,0.725,0.367,0.661,0.639,�k�k��,5.1,��
2020/03/30,05:10,0.580,0.797,0.562,1.110,0.726,0.367,0.663,0.639,�k�k��,5.1,��
2020/03/30,05:20,0.581,0.799,0.563,1.113,0.727,0.365,0.663,0.638,�k�k��,5.0,��
2020/03/30,05:30,0.580,0.799,0.564,1.114,0.726,0.365,0.662,0.638,�k�k��,4.8,��
2020/03/30,05:40,0.582,0.799,0.561,1.110,0.725,0.367,0.663,0.638,�k�k��,4.7,��
2020/03/30,05:50,0.582,0.799,0.562,1.114,0.728,0.366,0.663,0.639,�k�k��,4.3,��
2020/03/30,06:00,0.581,0.798,0.563,1.115,0.726,0.365,0.662,0.640,�k�k��,3.9,��
2020/03/30,06:10,0.582,0.800,0.562,1.114,0.727,0.367,0.662,0.640,�k��,3.5,��
2020/03/30,06:20,0.581,0.799,0.562,1.115,0.728,0.365,0.662,0.638,�k��,2.9,��
2020/03/30,06:30,0.581,0.799,0.563,1.114,0.726,0.367,0.662,0.639,�k��,2.5,��
2020/03/30,06:40,0.584,0.799,0.562,1.115,0.726,0.366,0.661,0.639,�k��,3.0,��
2020/03/30,06:50,0.583,0.801,0.562,1.115,0.727,0.367,0.661,0.638,�k��,3.4,��
2020/03/30,07:00,0.582,0.801,0.564,1.115,0.729,0.367,0.662,0.640,�k��,3.2,��
2020/03/30,07:10,0.583,0.800,0.563,1.114,0.728,0.366,0.663,0.638,�k��,2.9,��
2020/03/30,07:20,0.581,0.801,0.563,1.116,0.728,0.366,0.662,0.639,�k��,2.9,��
2020/03/30,07:30,0.583,0.802,0.563,1.117,0.729,0.367,0.663,0.639,�k��,3.6,��
2020/03/30,07:40,0.584,0.803,0.563,1.117,0.729,0.367,0.665,0.639,�k�k��,3.3,��
2020/03/30,07:50,0.584,0.800,0.565,1.120,0.729,0.366,0.664,0.639,�k��,3.5,��
2020/03/30,08:00,0.584,0.801,0.563,1.119,0.729,0.367,0.664,0.641,�k��,3.4,��
2020/03/30,08:10,0.586,0.804,0.564,1.119,0.731,0.368,0.666,0.642,�k�k��,2.6,��
2020/03/30,08:20,0.584,0.804,0.563,1.119,0.731,0.368,0.665,0.641,�k�k��,2.6,��
2020/03/30,08:30,0.586,0.803,0.566,1.121,0.734,0.368,0.666,0.642,�k�k��,2.5,��
2020/03/30,08:40,0.588,0.804,0.566,1.121,0.734,0.369,0.667,0.642,�k�k��,1.8,��
2020/03/30,08:50,0.589,0.806,0.567,1.124,0.738,0.369,0.667,0.640,�k��,1.7,��
2020/03/30,09:00,0.591,0.806,0.567,1.123,0.735,0.370,0.664,0.641,�k�k��,1.9,��
2020/03/30,09:10,0.592,0.808,0.568,1.124,0.739,0.369,0.665,0.642,�k�k��,2.2,��
2020/03/30,09:20,0.593,0.807,0.569,1.126,0.740,0.369,0.666,0.643,�k�k��,2.3,��
2020/03/30,09:30,0.597,0.815,0.570,1.126,0.744,0.371,0.665,0.640,���k��,1.9,��
2020/03/30,09:40,0.599,0.817,0.572,1.126,0.746,0.370,0.665,0.640,�k,2.0,��
2020/03/30,09:50,0.602,0.818,0.573,1.131,0.749,0.371,0.666,0.641,��,1.9,��
2020/03/30,10:00,0.603,0.820,0.574,1.133,0.751,0.370,0.667,0.640,�k��,1.5,��
2020/03/30,10:10,0.607,0.824,0.576,1.130,0.753,0.371,0.667,0.643,���k��,1.7,��
2020/03/30,10:20,0.610,0.827,0.579,1.130,0.755,0.372,0.668,0.640,���k��,2.0,��
2020/03/30,10:30,0.613,0.833,0.581,1.135,0.761,0.372,0.670,0.640,�k��,2.6,��
2020/03/30,10:40,0.613,0.839,0.582,1.138,0.763,0.372,0.669,0.642,�k��,2.9,��
2020/03/30,10:50,0.618,0.838,0.585,1.140,0.766,0.373,0.671,0.643,�k��,3.3,��
2020/03/30,11:00,0.621,0.849,0.586,1.139,0.768,0.372,0.670,0.644,�k��,2.9,��
2020/03/30,11:10,0.626,0.854,0.588,1.140,0.770,0.375,0.672,0.643,���k��,3.1,��
2020/03/30,11:20,0.631,0.858,0.590,1.143,0.777,0.374,0.674,0.645,���k��,3.7,��
2020/03/30,11:30,0.632,0.866,0.593,1.145,0.779,0.376,0.674,0.645,���k��,3.7,��
2020/03/30,11:40,0.636,0.871,0.594,1.147,0.782,0.377,0.674,0.645,���k��,3.4,��
2020/03/30,11:50,0.638,0.878,0.599,1.146,0.787,0.381,0.677,0.645,���k��,3.9,��
2020/03/30,12:00,0.643,0.887,0.603,1.149,0.790,0.381,0.676,0.645,���k��,3.9,��
2020/03/30,12:10,0.646,0.895,0.603,1.150,0.794,0.382,0.676,0.645,���k��,4.1,��
2020/03/30,12:20,0.650,0.898,0.609,1.154,0.795,0.382,0.678,0.644,���k��,3.9,��
2020/03/30,12:30,0.651,0.902,0.610,1.154,0.799,0.385,0.676,0.646,���k��,3.6,��
2020/03/30,12:40,0.654,0.909,0.614,1.155,0.803,0.384,0.676,0.646,���k��,3.4,��
2020/03/30,12:50,0.655,0.909,0.616,1.156,0.806,0.385,0.678,0.646,�k��,3.9,��
2020/03/30,13:00,0.658,0.915,0.619,1.159,0.809,0.385,0.679,0.646,��,4.0,��
2020/03/30,13:10,0.659,0.917,0.623,1.160,0.810,0.385,0.678,0.647,���k��,3.8,��
2020/03/30,13:20,0.662,0.921,0.627,1.159,0.812,0.386,0.677,0.646,���k��,3.9,��
2020/03/30,13:30,0.664,0.923,0.626,1.162,0.813,0.387,0.678,0.648,���k��,3.5,��
2020/03/30,13:40,0.664,0.925,0.631,1.162,0.815,0.385,0.679,0.646,��,4.2,��
2020/03/30,13:50,0.666,0.931,0.631,1.164,0.818,0.387,0.678,0.646,���k��,3.8,��
2020/03/30,14:00,0.667,0.934,0.634,1.162,0.820,0.384,0.679,0.646,���k��,3.8,��
2020/03/30,14:10,0.668,0.934,0.633,1.163,0.820,0.385,0.680,0.648,���k��,4.3,��
2020/03/30,14:20,0.669,0.934,0.636,1.168,0.822,0.386,0.679,0.648,���k��,4.0,��
2020/03/30,14:30,0.668,0.937,0.637,1.168,0.821,0.387,0.680,0.648,��,3.9,��
2020/03/30,14:40,0.669,0.939,0.639,1.168,0.825,0.387,0.678,0.646,��,3.3,��
2020/03/30,14:50,0.669,0.938,0.640,1.166,0.825,0.386,0.678,0.648,���k��,3.4,��
2020/03/30,15:00,0.669,0.944,0.641,1.172,0.825,0.389,0.681,0.647,���k��,3.0,��
2020/03/30,15:10,0.670,0.949,0.640,1.170,0.828,0.387,0.681,0.648,��,2.8,��
2020/03/30,15:20,0.670,0.947,0.640,1.171,0.826,0.388,0.680,0.646,��,3.1,��
2020/03/30,15:30,0.672,0.952,0.641,1.172,0.828,0.388,0.679,0.647,���쓌,3.3,��
2020/03/30,15:40,0.672,0.953,0.640,1.171,0.829,0.388,0.682,0.647,���쓌,2.9,��
2020/03/30,15:50,0.671,0.954,0.642,1.172,0.828,0.388,0.679,0.647,��,3.5,��
2020/03/30,16:00,0.674,0.954,0.642,1.174,0.827,0.387,0.681,0.648,��,3.7,��
2020/03/30,16:10,0.673,0.954,0.643,1.172,0.830,0.389,0.681,0.649,���쓌,2.6,��
2020/03/30,16:20,0.673,0.956,0.644,1.176,0.829,0.388,0.683,0.649,�쓌,2.3,��
2020/03/30,16:30,0.673,0.958,0.644,1.173,0.830,0.388,0.679,0.648,���쓌,2.5,��
2020/03/30,16:40,0.672,0.956,0.645,1.174,0.831,0.388,0.681,0.650,�쓌,2.0,��
2020/03/30,16:50,0.674,0.958,0.646,1.175,0.831,0.387,0.680,0.651,���쓌,2.8,��
2020/03/30,17:00,0.675,0.960,0.645,1.176,0.831,0.389,0.682,0.653,�쓌,2.2,��
2020/03/30,17:10,0.675,0.962,0.644,1.177,0.832,0.387,0.681,0.652,�쓌,2.5,��
2020/03/30,17:20,0.674,0.959,0.645,1.174,0.832,0.388,0.682,0.652,�쓌,2.5,��
2020/03/30,17:30,0.674,0.958,0.646,1.175,0.833,0.389,0.682,0.651,��쓌,3.0,��
2020/03/30,17:40,0.675,0.960,0.643,1.177,0.836,0.389,0.682,0.651,��쓌,3.1,��
2020/03/30,17:50,0.674,0.961,0.646,1.176,0.834,0.389,0.683,0.652,��쓌,2.2,��
2020/03/30,18:00,0.676,0.963,0.644,1.176,0.836,0.389,0.682,0.651,��쓌,3.1,��
2020/03/30,18:10,0.673,0.962,0.645,1.176,0.835,0.391,0.684,0.651,��쓌,3.0,��
2020/03/30,18:20,0.675,0.962,0.646,1.182,0.835,0.389,0.685,0.651,�쓌,2.2,��
2020/03/30,18:30,0.675,0.962,0.647,1.177,0.835,0.388,0.683,0.651,��쓌,2.0,��
2020/03/30,18:40,0.675,0.963,0.647,1.179,0.837,0.389,0.682,0.651,��,2.6,��
2020/03/30,18:50,0.673,0.963,0.647,1.177,0.836,0.389,0.683,0.652,��쓌,2.0,��
2020/03/30,19:00,0.674,0.963,0.645,1.178,0.835,0.388,0.683,0.650,��,2.3,��
2020/03/30,19:10,0.674,0.961,0.645,1.176,0.836,0.389,0.683,0.651,��,2.3,��
2020/03/30,19:20,0.676,0.965,0.647,1.179,0.836,0.389,0.684,0.649,��쓌,2.2,��
2020/03/30,19:30,0.675,0.963,0.649,1.179,0.836,0.389,0.683,0.652,��,2.3,��
2020/03/30,19:40,0.677,0.963,0.647,1.177,0.837,0.389,0.682,0.651,��,2.5,��
2020/03/30,19:50,0.674,0.960,0.647,1.177,0.838,0.389,0.683,0.651,��,3.1,��
2020/03/30,20:00,0.674,0.964,0.645,1.179,0.839,0.390,0.682,0.652,��,3.4,��
2020/03/30,20:10,0.676,0.964,0.647,1.178,0.838,0.390,0.683,0.650,��,3.8,��
2020/03/30,20:20,0.674,0.964,0.646,1.178,0.838,0.388,0.683,0.651,��,4.0,��
2020/03/30,20:30,0.677,0.964,0.646,1.178,0.837,0.388,0.683,0.651,��,3.7,��
2020/03/30,20:40,0.675,0.962,0.647,1.180,0.838,0.388,0.684,0.652,��,4.2,��
2020/03/30,20:50,0.674,0.961,0.648,1.180,0.837,0.390,0.683,0.652,��쐼,4.0,��
2020/03/30,21:00,0.676,0.964,0.647,1.178,0.838,0.388,0.682,0.651,��,4.4,��
2020/03/30,21:10,0.676,0.963,0.646,1.179,0.839,0.389,0.683,0.650,��,4.4,��
2020/03/30,21:20,0.674,0.963,0.648,1.180,0.840,0.389,0.684,0.652,��,3.9,��
2020/03/30,21:30,0.674,0.962,0.646,1.178,0.840,0.389,0.683,0.651,��쐼,4.0,��
2020/03/30,21:40,0.673,0.962,0.648,1.180,0.839,0.389,0.685,0.652,��쐼,4.4,��
2020/03/30,21:50,0.674,0.962,0.645,1.180,0.841,0.389,0.683,0.652,��쐼,3.8,��
2020/03/30,22:00,0.675,0.963,0.648,1.180,0.838,0.387,0.682,0.652,��쐼,3.8,��
2020/03/30,22:10,0.675,0.961,0.646,1.179,0.838,0.390,0.684,0.652,��쐼,3.9,��
2020/03/30,22:20,0.675,0.962,0.646,1.179,0.838,0.386,0.684,0.652,��쐼,4.0,��
2020/03/30,22:30,0.675,0.962,0.648,1.180,0.841,0.388,0.684,0.651,��쐼,4.1,��
2020/03/30,22:40,0.675,0.962,0.649,1.181,0.839,0.389,0.683,0.650,��쐼,4.2,��
2020/03/30,22:50,0.675,0.963,0.647,1.182,0.839,0.389,0.685,0.650,��쐼,3.6,��
2020/03/30,23:00,0.675,0.962,0.647,1.179,0.839,0.388,0.682,0.649,��쐼,2.3,��
2020/03/30,23:10,0.675,0.963,0.648,1.179,0.839,0.390,0.683,0.650,��쐼,3.0,��
2020/03/30,23:20,0.676,0.962,0.648,1.179,0.840,0.389,0.683,0.651,��쐼,3.4,��
2020/03/30,23:30,0.675,0.960,0.646,1.181,0.838,0.389,0.683,0.650,��쐼,3.7,��
2020/03/30,23:40,0.675,0.963,0.648,1.180,0.839,0.389,0.683,0.652,��쐼,3.7,��
2020/03/30,23:50,0.673,0.962,0.647,1.179,0.839,0.388,0.683,0.651,��,4.1,��
